KD5NDU-15 Weather Reports


time (UTC)temp
F
wind
direction
speed
knots
gust
knots
rain 1hr
in
rain 24hr
in
rain mn
in
humidity
%
barometer
mb
20260510164153 73 203 0.9 2.6 0.00 0.00 0.00 92 1014.8
20260510163653 73 205 0.9 1.7 0.00 0.00 0.00 91 1014.9
20260510163153 72 201 0.9 4.3 0.00 0.00 0.00 91 1015.0
20260510162653 72 233 0.9 2.6 0.00 0.00 0.00 92 1015.1
20260510162153 72 230 1.7 4.3 0.00 0.00 0.00 93 1015.1
20260510161653 72 205 1.7 3.5 0.00 0.00 0.00 93 1015.0
20260510161153 71 210 1.7 4.3 0.00 0.00 0.00 94 1014.9
20260510160653 71 247 0.9 1.7 0.00 0.00 0.00 94 1014.8
20260510160153 70 217 0.9 2.6 0.00 0.00 0.00 97 1014.7
20260510153653 0 767 221.6 221.6 0.00 0.00 0.00
20260510152653 0 767 221.6 221.6 0.00 0.00 0.00
20260510152153 68 221 0.9 2.6 0.00 0.00 0.00 100 1014.4
20260510151653 68 221 0.9 2.6 0.00 0.00 0.00 100 1014.4
20260510151153 68 223 0.9 2.6 0.00 0.00 0.00 100 1014.4
20260510150653 67 227 0.9 2.6 0.00 0.00 0.00 100 1014.5
20260510150153 67 227 0.9 1.7 0.00 0.00 0.00 100 1014.4
20260510145653 67 229 0.9 2.6 0.00 0.00 0.00 100 1014.4
20260510145153 67 219 0.9 2.6 0.00 0.00 0.00 100 1014.5
20260510144653 67 219 0.9 1.7 0.00 0.00 0.00 100 1014.6
20260510144153 67 219 0.9 2.6 0.00 0.00 0.00 100 1014.4
20260510143653 66 218 0.9 2.6 0.00 0.00 0.00 100 1014.3
20260510143153 66 216 1.7 2.6 0.00 0.00 0.00 100 1014.6
20260510142653 66 237 1.7 2.6 0.00 0.00 0.00 100 1014.5
20260510142153 66 237 1.7 3.5 0.00 0.00 0.00 100 1014.5
20260510141653 66 221 1.7 3.5 0.00 0.00 0.00 100 1014.5
20260510141248 66 229 0.9 3.5 0.00 0.00 0.00 100 1014.5
20260510141153 66 229 0.9 3.5 0.00 0.00 0.00 100 1014.5
20260510140653 66 236 0.9 3.5 0.00 0.00 0.00 100 1014.5